TimeCDT,TemperatureF,Dew PointF,Humidity,Sea Level PressureIn,VisibilityMPH,Wind Direction,Wind SpeedMPH,Gust SpeedMPH,PrecipitationIn,Events,Conditions,WindDirDegrees,DateUTC
12:53 AM,69.1,66.9,93,29.98,8.0,Calm,Calm,-,N/A,,Clear,0,2013-10-05 05:53:00
1:53 AM,68.0,66.9,96,29.97,7.0,South,5.8,-,N/A,,Clear,190,2013-10-05 06:53:00
2:53 AM,69.1,66.9,93,29.95,8.0,SSW,6.9,-,N/A,,Clear,200,2013-10-05 07:53:00
3:53 AM,68.0,66.9,96,29.95,8.0,South,6.9,-,N/A,,Clear,190,2013-10-05 08:53:00
4:53 AM,68.0,66.9,96,29.96,8.0,SSW,4.6,-,N/A,,Clear,200,2013-10-05 09:53:00
5:53 AM,66.0,66.0,100,29.96,5.0,Calm,Calm,-,N/A,,Clear,0,2013-10-05 10:53:00
6:53 AM,66.0,66.0,100,29.95,2.5,SE,4.6,-,N/A,,Clear,140,2013-10-05 11:53:00
7:05 AM,66.2,66.2,100,29.96,1.8,SSE,4.6,-,N/A,,Partly Cloudy,150,2013-10-05 12:05:00
7:20 AM,66.2,66.2,100,29.96,2.0,SSE,3.5,-,N/A,,Scattered Clouds,150,2013-10-05 12:20:00
7:41 AM,66.2,66.2,100,29.96,2.5,SSE,5.8,-,N/A,,Mostly Cloudy,150,2013-10-05 12:41:00
7:53 AM,66.9,66.9,100,29.95,3.0,SSE,5.8,-,N/A,,Scattered Clouds,160,2013-10-05 12:53:00
8:28 AM,68.0,68.0,100,29.96,4.0,South,5.8,-,N/A,,Mostly Cloudy,180,2013-10-05 13:28:00
8:41 AM,69.8,68.0,94,29.96,5.0,South,5.8,-,N/A,,Overcast,190,2013-10-05 13:41:00
8:53 AM,69.1,68.0,96,29.95,6.0,South,6.9,-,N/A,,Overcast,180,2013-10-05 13:53:00
9:53 AM,71.1,69.1,93,29.95,8.0,SSW,6.9,-,N/A,,Overcast,200,2013-10-05 14:53:00
10:41 AM,73.4,69.8,88,29.96,9.0,SSW,6.9,-,N/A,,Overcast,210,2013-10-05 15:41:00
10:53 AM,73.0,69.1,87,29.94,9.0,SSW,8.1,-,N/A,,Overcast,200,2013-10-05 15:53:00
11:53 AM,73.0,69.1,87,29.93,9.0,SSW,6.9,-,N/A,,Overcast,210,2013-10-05 16:53:00
12:53 PM,75.9,69.1,79,29.90,10.0,SE,5.8,-,N/A,,Overcast,130,2013-10-05 17:53:00
1:37 PM,78.8,68.0,69,29.89,10.0,South,8.1,-,N/A,,Scattered Clouds,180,2013-10-05 18:37:00
1:49 PM,78.8,68.0,69,29.88,10.0,SSE,6.9,-,N/A,,Mostly Cloudy,160,2013-10-05 18:49:00
1:53 PM,78.1,68.0,71,29.87,10.0,SSE,9.2,-,N/A,,Mostly Cloudy,160,2013-10-05 18:53:00
2:53 PM,70.0,64.0,81,29.87,10.0,SE,12.7,18.4,N/A,,Partly Cloudy,140,2013-10-05 19:53:00
3:53 PM,71.1,66.0,84,29.82,10.0,SSE,10.4,16.1,0.00,Rain,Light Rain,150,2013-10-05 20:53:00
4:53 PM,71.1,68.0,90,29.84,10.0,South,10.4,-,0.00,,Partly Cloudy,190,2013-10-05 21:53:00
5:53 PM,68.0,64.0,87,29.85,10.0,South,8.1,-,0.00,,Mostly Cloudy,190,2013-10-05 22:53:00
6:53 PM,66.9,64.0,90,29.84,10.0,South,5.8,-,N/A,,Scattered Clouds,190,2013-10-05 23:53:00
7:14 PM,66.2,64.4,94,29.86,1.8,South,17.3,24.2,0.15,Rain,Heavy Rain,180,2013-10-06 00:14:00
7:22 PM,66.2,64.4,94,29.86,2.0,South,12.7,24.2,0.20,Rain,Rain,190,2013-10-06 00:22:00
7:28 PM,66.2,66.2,100,29.87,3.0,SSW,13.8,24.2,0.24,Rain,Heavy Rain,200,2013-10-06 00:28:00
7:53 PM,64.9,64.9,100,29.86,3.0,SW,12.7,-,0.32,Rain,Heavy Rain,230,2013-10-06 00:53:00
8:02 PM,64.4,64.4,100,29.87,2.5,SSW,15.0,-,0.08,Rain,Heavy Rain,210,2013-10-06 01:02:00
8:31 PM,64.4,64.4,100,29.85,6.0,South,6.9,-,0.24,Rain,Rain,190,2013-10-06 01:31:00
8:53 PM,64.9,64.9,100,29.84,5.0,South,5.8,-,0.26,Rain,Light Rain,170,2013-10-06 01:53:00
9:21 PM,64.4,64.4,100,29.85,10.0,South,5.8,-,0.01,,Overcast,170,2013-10-06 02:21:00
9:53 PM,64.9,64.9,100,29.84,10.0,SSE,3.5,-,0.01,,Overcast,160,2013-10-06 02:53:00
10:24 PM,66.2,66.2,100,29.84,9.0,South,5.8,-,N/A,,Overcast,180,2013-10-06 03:24:00
10:33 PM,66.2,66.2,100,29.84,10.0,South,6.9,-,N/A,,Overcast,180,2013-10-06 03:33:00
10:41 PM,66.2,66.2,100,29.84,9.0,South,5.8,-,N/A,,Overcast,180,2013-10-06 03:41:00
10:50 PM,66.2,66.2,100,29.84,10.0,South,8.1,-,N/A,,Overcast,190,2013-10-06 03:50:00
10:53 PM,66.0,66.0,100,29.83,10.0,SSW,8.1,-,N/A,,Overcast,200,2013-10-06 03:53:00
11:53 PM,64.9,64.9,100,29.79,9.0,SSE,9.2,-,N/A,,Overcast,160,2013-10-06 04:53:00